This is the latest recevied weather packets stored in our database for station/object KG4AGD. If no packets are shown the sender has not sent any weather packets the latest 10 day(s).
| Time | Temp. | Humidity | Pressure | Rain* | Wind** | Luminosity | Snow |
|---|---|---|---|---|---|---|---|
| 1777906222 | 21.11° C | 58% | 1018.6 hPa | 0 mm | - | - | - |
| 1777905920 | 21.67° C | 57% | 1018.6 hPa | 0 mm | - | - | - |
| 1777905617 | 21.11° C | 61% | 1018.6 hPa | 0 mm | - | - | - |
| 1777905315 | 21.67° C | 60% | 1018.6 hPa | 0 mm | - | - | - |
| 1777905013 | 20.56° C | 62% | 1018.6 hPa | 0 mm | - | - | - |
| 1777904710 | 21.11° C | 61% | 1018.6 hPa | 0 mm | - | - | - |
| 1777904408 | 20.56° C | 62% | 1018.6 hPa | 0 mm | - | - | - |
| 1777904106 | 20.56° C | 63% | 1018.6 hPa | 0 mm | - | - | - |
| 1777903804 | 20° C | 64% | 1018.9 hPa | 0 mm | - | - | - |
| 1777903500 | 20.56° C | 66% | 1018.9 hPa | 0 mm | - | - | - |
| 1777903197 | 20° C | 65% | 1018.9 hPa | 0 mm | - | - | - |
| 1777902895 | 19.44° C | 67% | 1018.6 hPa | 0 mm | - | - | - |
| 1777902592 | 18.33° C | 68% | 1018.6 hPa | 0 mm | - | - | - |
| 1777902290 | 18.89° C | 71% | 1018.6 hPa | 0 mm | - | - | - |
| 1777901988 | 18.33° C | 71% | 1018.6 hPa | 0 mm | - | - | - |
| 1777901686 | 18.33° C | 71% | 1018.6 hPa | 0 mm | - | - | - |
| 1777901384 | 17.78° C | 73% | 1018.6 hPa | 0 mm | - | - | - |
| 1777901082 | 17.22° C | 74% | 1018.9 hPa | 0 mm | - | - | - |
| 1777900780 | 17.22° C | 74% | 1018.9 hPa | 0 mm | - | - | - |
| 1777900477 | 17.22° C | 76% | 1018.6 hPa | 0 mm | - | - | - |
| 1777900175 | 16.67° C | 76% | 1018.6 hPa | 0 mm | - | - | - |
| 1777899873 | 16.67° C | 78% | 1018.6 hPa | 0 mm | - | - | - |
| 1777899571 | 16.11° C | 79% | 1018.6 hPa | 0 mm | - | - | - |
| 1777899269 | 16.11° C | 80% | 1018.6 hPa | 0 mm | - | - | - |
| 1777898966 | 15.56° C | 81% | 1018.6 hPa | 0 mm | - | - | - |
* Rain since midnight (hover to see other rain measurements)
** Current wind speed in m/s (hover to see current wind gust speed)